{"data":{"norad_id":56334,"epoch":"2026-09-20T12:27:20.783520Z","epoch_age_seconds":106942,"freshness":"FRESH","line1":"1 56334U 23058T   26263.51899055  .00014154  00000+0  43997-3 0  9999","line2":"2 56334  97.2849 260.2094 0001608  98.4431 261.6994 15.33440195187636","mean_motion":15.33440195,"eccentricity":0.0001608,"inclination_deg":97.2849,"raan_deg":260.2094,"arg_perigee_deg":98.4431,"mean_anomaly_deg":261.6994,"bstar":0.00043997,"rev_number":18763,"period_min":93.906498909793,"perigee_km":464.45700474395,"apogee_km":466.65793688576,"semimajor_km":6843.6944708149,"source":"CELESTRAK","updated_at":"2026-09-21T09:00:33.403825Z"}}